Location: Napa Junction
(38.1874°N, 122.2508°W)
Time: 11:52:50
(UTC+00:00)

Cosmos 2151 - Pass Details

Date: 08 September 2024
Orbit: 567 x 585 km, 82.5° (Epoch: 11 October)

Event Time Altitude Azimuth Distance (km) Brightness Sun altitude
Rises 12:37:32 0° 1° (N) 2,774 6.7 -13.8°
Reaches altitude 10° 12:39:51 10° 9° (N) 1,873 5.9 -13.4°
Maximum altitude 12:43:42 38° 79° (ENE) 878 4.5 -12.6°
Drops below altitude 10° 12:47:32 10° 148° (SSE) 1,865 5.7 -11.9°
Sets 12:49:50 0° 156° (SSE) 2,760 6.5 -11.5°
